Location: El Abasto
(10.3790°N, 67.5897°W)
Time: 07:01:53
(UTC+00:00)

Cosmos 1867 - Pass Details

Date: 19 May 2024
Orbit: 772 x 802 km, 65.0° (Epoch: 23 June)

Event Time Altitude Azimuth Distance (km) Brightness Sun altitude
Rises 23:38:12 0° 336° (NNW) 3,293 7.6 -12.8°
Reaches altitude 10° 23:40:37 10° 336° (NNW) 2,360 6.7 -13.3°
Maximum altitude 23:46:03 83° 250° (WSW) 800 3.6 -14.5°
Enters shadow 23:51:04 12° 161° (SSE) 2,199 5.5 -15.7°
